CZ-6A DEB

Satellite information

Favourite Embed

Satellite Type and Status

DEBRISIN ORBIT

Key statistics

Satellite CZ-6A DEB at a glance.

Uptime

970

Days in orbit

Revolutions

≈ 14.2

Per day

Orbit

SSO

Sun Synchronous Orbit

Inclination

98.8

Latest

Satellite identification and parameters

Extended collection of information and parameters for CZ-6A DEB.

Object identification

Identified? True

Debris? True

Object name: CZ-6A DEB

International designator: 2022-151AFK

Object number (NORAD): 56635

Object ID (CCSDS): 56635

Country: PEOPLES REPUBLIC OF CHINA (PRC)

Current information (Y/N): Y

RCS size: SMALL

Orbital parameters

Period: 101.41 minutes

Inclination: 98.7565 deg

SMA: 7203.549 km

Apoapsis: 846.291 km

Periapsis: 804.536 km

RAAN: 196.612 deg

Eccentricy: 0.0028982

Argument of periapsis: 261.3178 deg

Mean anomaly: 98.4715 deg

Mean motion: 14.19982616 rev/day

Mean motion (dot): 0.00000197 rev/day2

B* drag term: 0.00011294 1/REarth

Two-line elements (TLE)

Creation date: July 6, 2025, 6:05 p.m.

Reference frame: TEME

Reference center: EARTH

Epoch: July 6, 2025, 11:07 a.m. UTC

TLE line 0: 0 CZ-6A DEB

TLE line 1: 1 56635U 22151AFK 25187.46367591 .00000197 00000-0 11294-3 0 9997

TLE line 2: 2 56635 98.7565 196.6120 0028982 261.3178 98.4715 14.19982616113915

Live tracking on map

Real-time ground track for satellite CZ-6A DEB.

In-orbit conjunctions

A list of the most updated potential collisions computed for object CZ-6A DEB.

Target Orbit TCA Probability of collision Miss distance Type
CZ-6A DEB LEO 2025-02-10 02:47:13 0.0002215819 610.0 (m) DEBRIS

Associated space launch

Chinese satellite reported for atmospheric/ocean/environmental/spatial parameter research purposes, details TBD.

CZ-6A DEB was lifted into orbit during the mission ‘Long March 6A | Yunhai 3’, on board a Long March 6A space rocket.

The launch took place on Nov. 11, 2022, 10:52 p.m. from Launch Complex 9A.

For more information about the launch, click the button.

Launch to space Long March 6A | Yunhai 3
Long March 6A | Yunhai 3

Agency: N/A

Status: Launch Successful

Launch date: Nov. 11, 2022, 10:52 p.m. UTC

Rocket: Long March 6A

Launch pad: Launch Complex 9A

Location: Taiyuan Satellite Launch Center, People's Republic of China

...

Latest news about this satellite

There are no fresh news available about this satellite. Check back as we update our databases every day.


Newsletter sign-up

Weekly statistics, charts and insights to help you stay on top of the space industry.